Location: Maccacari
(45.1333°N, 11.1333°E)
Time: 03:20:03
(UTC+00:00)

Altair - Pass Details

Date: 02 February 2021
Orbit: 1501 x 1682 km, 47.2° (Epoch: 01 March)

Event Time Altitude Azimuth Distance (km) Brightness Sun altitude
Rises 22:49:41 0° 168° (SSE) 4,743 - -60.2°
Reaches altitude 10° 22:55:37 10° 140° (SE) 3,811 - -60.5°
Maximum altitude 22:58:43 12° 121° (ESE) 3,685 - -60.7°
Drops below altitude 10° 23:01:51 10° 101° (ESE) 3,863 - -60.8°
Sets 23:07:54 0° 74° (ENE) 4,895 - -61.0°
